Simultaneous Nadir Overpasses (SNOs) Predictions

Prediction of SNOs between GOES-16 and AQUA Satellite Orbit:

Table of predicted SNOs for the next 14.0 days since TLE Epoch: 11/22/2019
Index Date Time (GOES-16) GOES-16 Lat,Lon AQUA Lat,Lon Distance(km) Time Diff (sec)
1 11/23/2019 18:29:04 0.01, -75.20 0.45, -73.16 232.13 80
2 11/24/2019 06:50:20 -0.01, -75.19 0.65, -78.31 354.89 80
3 11/26/2019 06:38:08 -0.01, -75.20 0.04, -75.35 17.70 80
4 11/28/2019 06:23:17 -0.01, -75.22 -0.63, -72.40 320.39 80
5 11/28/2019 18:44:40 0.01, -75.23 -0.50, -77.59 268.47 80
6 11/30/2019 18:35:08 0.01, -75.25 0.12, -74.62 70.31 80
7 12/02/2019 18:22:56 0.00, -75.27 0.74, -71.66 409.81 80
8 12/03/2019 06:44:13 -0.00, -75.28 0.30, -76.83 176.42 80
9 12/05/2019 06:29:21 0.00, -75.31 -0.33, -73.87 164.07 80
10 12/05/2019 18:50:44 -0.00, -75.33 -0.80, -79.06 424.32 80




NCC Satellite Simultaneous Nadir Overpasses (SNOs) Prediction Service
